Location: Carrières
(48.9495°N, 2.0407°E)
Time: 01:33:08
(UTC+00:00)

Transit 2A - Pass Details

Date: 22 April 2024
Orbit: 600 x 946 km, 66.7° (Epoch: 22 May)

Event Time Altitude Azimuth Distance (km) Brightness Sun altitude
Rises 06:56:12 0° 237° (WSW) 2,872 8.5 20.1°
Reaches altitude 10° 06:58:30 10° 245° (WSW) 1,997 7.7 20.5°
Maximum altitude 07:02:45 41° 316° (NW) 960 6.4 21.2°
Drops below altitude 10° 07:07:20 10° 26° (NNE) 2,164 8.7 21.9°
Sets 07:09:51 0° 34° (NNE) 3,115 9.5 22.3°
